GFSSGP_850_thetae_162.txt.gz
Theta_e
323 323 322 323 319 316 320 324 320 324 325 325 326 323 324 329 329 324 329 328 324 325 322 317 326 330 331 330 332 333 328 326 315 317 314 313 315 315 315 316 318 321 330 328 318 318 316 315 314
324 325 322 323 319 318 318 317 322 322 328 330 330 330 330 330 332 328 327 323 321 322 313 319 328 332 331 329 332 331 328 321 313 323 325 318 320 321 316 315 314 314 327 323 316 316 316 315 315
327 326 321 317 316 321 320 321 320 326 329 326 332 331 330 330 330 325 322 319 317 318 312 318 327 329 331 328 331 331 324 321 316 331 325 323 317 316 314 314 314 315 322 319 316 316 315 316 315
330 323 320 318 322 321 319 323 324 326 326 326 330 329 330 328 328 322 318 315 315 311 314 315 325 328 330 328 330 328 322 321 319 332 330 323 316 314 313 313 313 316 320 316 316 316 316 315 315
328 322 318 320 321 320 319 323 324 324 326 327 327 329 330 329 328 322 317 315 312 311 313 313 319 328 327 328 326 323 318 317 317 326 321 316 314 314 313 313 313 314 315 315 315 315 316 315 315
323 320 320 321 320 320 317 325 325 324 326 327 329 329 328 329 328 325 321 316 311 313 313 312 315 324 326 326 323 317 313 313 311 317 313 314 314 313 313 313 313 314 314 315 315 316 317 316 316
317 317 321 321 321 322 318 323 325 324 325 327 330 328 329 328 327 324 322 316 312 314 313 311 311 317 322 320 317 315 312 311 310 313 313 314 314 313 313 313 313 314 314 314 315 316 316 317 316
325 317 321 321 321 322 321 320 323 325 324 326 329 327 327 323 329 328 323 320 312 314 314 312 311 312 315 315 314 312 311 310 312 313 313 314 314 313 313 313 313 313 314 314 314 315 316 316 316
326 319 323 323 323 322 320 317 319 323 326 328 329 328 327 324 329 331 325 323 316 313 315 314 313 312 313 313 313 311 311 311 313 313 313 313 314 314 314 314 314 313 314 314 315 315 315 316 316
324 324 322 319 320 319 319 317 318 321 324 327 327 328 328 326 326 330 328 322 320 315 314 315 314 314 313 313 313 313 312 313 313 314 313 313 314 314 314 314 314 314 314 314 314 315 315 316 316
323 327 322 325 324 322 320 321 316 319 321 325 328 327 327 327 328 328 329 323 320 318 315 315 315 315 315 315 314 314 314 313 313 313 314 314 314 314 314 314 314 314 314 314 314 315 315 316 316
323 325 325 325 325 324 322 320 315 316 318 322 325 327 326 327 327 325 326 325 322 320 317 315 316 315 316 317 317 316 315 314 313 313 314 314 314 314 314 314 314 314 314 314 314 315 315 316 316
322 324 324 325 324 325 322 321 318 318 318 318 321 325 326 326 326 326 326 327 324 323 320 316 315 316 316 316 317 316 315 315 314 314 314 315 315 315 314 314 314 314 314 314 314 314 315 315 316
323 323 323 324 324 324 322 323 318 319 318 316 320 323 325 326 326 327 327 325 325 324 324 320 315 315 316 316 316 317 316 315 315 315 315 315 317 316 316 315 315 315 315 315 315 315 315 315 315
323 324 323 324 324 325 322 324 314 322 318 315 317 320 324 325 327 326 325 323 321 322 324 324 320 316 316 316 316 316 316 316 316 316 316 316 316 317 317 316 316 315 315 315 315 315 315 315 316
324 323 326 323 325 325 324 327 320 321 320 317 315 319 322 325 325 326 326 325 323 323 324 325 325 320 317 316 316 316 316 317 316 316 317 317 317 318 318 317 317 317 317 316 316 316 316 317 317
323 326 323 324 325 325 322 324 321 323 316 316 317 316 319 322 326 325 326 326 324 323 323 324 326 325 322 319 317 317 317 317 317 317 317 317 318 318 319 318 318 319 319 319 319 319 319 319 318
326 327 322 324 325 325 323 321 320 325 324 317 317 318 315 318 320 322 324 325 325 324 324 324 325 326 326 324 322 321 320 320 319 319 318 318 319 320 319 319 319 319 320 320 320 320 320 320 320
321 323 324 323 323 324 324 324 324 324 322 319 316 317 318 318 318 319 322 324 326 325 326 325 325 325 326 327 326 324 323 322 321 320 320 319 320 320 321 320 320 320 320 321 321 321 321 321 321
324 323 323 322 323 323 323 324 323 323 323 323 323 320 317 318 320 320 317 319 322 324 324 324 324 325 325 325 325 325 324 323 323 322 321 320 321 321 322 321 321 321 321 321 321 321 321 321 321
322 324 323 323 322 323 325 326 324 323 323 323 323 323 323 321 323 324 322 320 317 319 320 323 323 323 324 326 327 327 327 326 325 324 323 322 322 322 322 322 322 322 322 322 321 321 321 321 321
322 320 322 323 324 327 324 328 323 322 323 321 323 322 321 322 324 325 323 323 324 321 318 319 321 322 323 325 327 327 325 324 321 322 322 322 323 323 322 322 323 322 322 323 323 322 322 321 321
323 322 323 323 325 323 323 325 323 321 322 321 321 322 321 323 324 325 326 325 326 324 321 319 319 320 322 324 324 326 327 325 325 324 321 321 322 323 323 322 322 322 323 323 323 323 323 322 322
320 321 322 322 324 325 323 324 323 324 320 319 320 322 323 323 325 326 328 327 327 326 325 320 318 318 318 321 323 324 323 325 325 324 323 322 322 322 323 322 322 322 322 323 324 324 323 323 322
321 322 323 323 323 325 318 322 322 321 314 314 316 318 320 321 322 322 322 322 324 326 326 325 319 317 317 319 321 323 324 325 325 324 323 322 321 320 319 322 322 321 322 323 323 323 323 322 323
321 321 324 324 323 322 316 324 322 318 318 320 319 319 320 322 323 320 319 319 320 322 325 324 325 324 318 318 318 321 323 325 326 326 325 323 321 319 318 319 321 321 322 322 322 323 323 322 323
321 323 319 318 309 316 316 312 313 312 312 311 312 314 319 322 320 322 321 318 319 319 320 323 324 325 322 320 318 319 322 324 324 324 325 324 322 321 319 318 319 322 322 322 322 322 322 323 323
319 317 320 317 322 319 316 314 318 314 315 313 315 313 316 317 318 317 320 318 317 319 319 320 320 322 323 322 321 319 320 322 323 323 324 324 323 322 320 318 319 321 322 322 323 323 323 324 324
318 320 320 319 318 318 317 316 309 314 314 312 310 312 313 313 314 315 316 320 319 316 316 319 320 320 320 320 320 320 320 323 323 323 324 324 324 324 323 320 320 322 324 324 325 326 327 326 325
318 318 319 321 318 313 311 317 311 307 307 307 307 309 310 309 311 314 314 316 318 317 315 315 317 318 319 319 319 319 320 322 324 324 324 324 324 324 324 323 323 325 326 327 328 327 326 325 323

GFSSGP_850_thetae_165.txt.gz
Theta_e
324 322 322 323 321 319 321 324 320 324 324 323 326 324 326 327 329 325 326 329 329 326 317 324 329 331 332 329 330 328 324 319 315 318 318 316 316 316 315 317 330 328 328 324 321 314 314 315 315
328 322 322 323 321 320 320 316 322 322 327 327 327 328 330 329 331 328 327 325 326 322 314 321 328 331 331 329 332 329 324 318 331 328 323 320 318 316 316 315 327 328 323 320 317 314 314 315 315
329 323 321 318 318 322 322 319 320 325 328 327 330 329 329 328 330 325 322 320 318 318 313 321 329 333 330 328 331 328 321 316 330 323 326 322 316 314 314 314 321 326 317 318 317 315 315 314 315
331 324 320 319 322 321 319 322 323 327 327 326 329 329 329 326 329 324 318 315 315 313 312 320 328 331 331 326 330 327 322 316 331 330 323 318 314 313 313 313 319 322 319 317 317 316 315 314 315
329 322 319 320 321 320 317 322 325 325 325 327 328 326 328 326 326 323 317 313 312 311 312 317 325 329 330 328 329 326 321 319 331 331 322 314 313 313 313 313 316 318 315 316 316 315 315 315 315
323 319 321 321 320 318 317 324 325 324 325 326 327 327 325 326 326 322 317 313 311 311 312 313 321 325 328 327 327 324 319 316 324 327 315 314 313 313 313 313 314 315 315 315 316 316 315 315 315
320 319 321 321 320 321 317 321 324 324 324 327 329 326 326 326 325 324 320 317 311 313 312 311 315 322 325 327 325 320 314 312 314 318 314 314 313 313 313 313 313 314 315 315 315 316 316 315 315
319 319 321 321 322 322 318 318 319 324 324 326 328 327 325 324 324 325 323 318 312 314 314 312 312 316 320 323 320 317 313 311 310 314 313 314 313 313 313 313 313 314 314 314 315 316 316 316 315
325 323 325 323 323 322 319 317 319 319 324 326 329 328 326 324 322 325 324 320 313 313 315 313 311 312 315 317 317 315 312 310 311 313 313 314 314 313 313 313 313 313 314 314 315 315 316 316 315
324 326 324 321 319 320 321 320 320 318 319 324 327 328 327 327 323 323 322 320 316 313 315 314 313 312 312 314 314 313 312 311 312 313 313 313 314 314 313 313 313 313 313 314 314 315 315 316 316
323 325 322 320 323 325 324 321 322 318 317 320 323 326 327 328 326 323 324 322 319 315 314 315 314 313 313 313 313 312 313 312 313 313 313 313 314 314 314 313 313 313 313 314 314 314 315 315 316
323 323 323 325 326 325 323 325 321 322 323 322 318 318 321 327 327 325 323 322 322 320 316 314 315 315 314 313 313 313 313 313 313 313 313 313 314 314 314 314 314 314 314 314 314 314 315 315 316
322 323 324 325 324 324 323 323 324 320 327 327 320 317 319 324 327 326 326 326 325 323 320 316 315 315 315 315 315 315 314 314 313 313 313 314 314 314 314 314 314 314 314 314 314 314 315 315 315
322 323 323 323 324 323 321 322 321 325 327 325 326 320 318 321 324 326 326 326 326 324 322 320 316 315 316 315 316 316 315 315 315 314 314 314 315 314 314 314 314 314 314 314 314 314 315 315 315
323 324 323 322 322 323 324 323 320 324 325 326 326 327 316 319 325 325 326 325 325 324 325 322 321 316 315 316 316 316 316 316 316 315 315 315 315 316 316 315 315 314 314 315 315 315 315 315 315
325 324 328 323 323 324 323 327 322 325 323 320 320 322 319 316 320 324 326 326 327 327 324 323 323 323 317 315 316 316 316 316 316 316 316 316 315 316 317 316 316 316 316 315 315 315 316 316 316
325 325 327 325 324 324 322 324 322 324 322 323 323 322 322 320 316 319 322 325 326 327 326 323 323 325 323 319 316 316 316 316 316 317 316 316 316 316 317 317 317 317 317 317 317 317 318 318 318
322 325 323 324 322 324 323 324 322 324 323 320 319 320 321 320 319 318 318 322 325 326 327 325 324 324 325 325 321 317 316 317 317 316 317 317 317 317 318 318 318 319 319 319 319 319 319 320 320
320 322 323 323 321 324 324 323 322 322 323 322 323 324 325 322 322 323 321 318 321 326 327 326 325 324 325 325 325 323 320 318 317 317 317 317 317 317 318 319 319 319 319 319 320 320 320 320 320
321 323 322 320 322 324 322 323 321 321 322 323 323 322 322 324 326 325 324 321 318 319 323 325 325 325 324 323 323 325 323 322 321 320 319 319 319 318 318 319 319 320 320 320 320 320 321 321 321
320 322 322 323 322 322 323 324 321 320 321 321 322 322 323 323 325 327 326 324 322 321 319 319 322 325 324 323 324 326 326 326 324 323 322 321 321 321 320 320 320 321 321 321 321 321 321 321 321
321 317 318 320 322 323 321 323 319 319 320 320 322 322 322 323 323 325 327 326 325 323 323 318 318 319 323 325 324 325 324 323 321 321 322 322 322 323 323 322 321 321 322 322 322 322 322 322 321
321 319 319 320 322 321 321 324 319 319 321 320 320 322 322 323 324 323 324 326 327 326 326 324 324 320 318 322 324 324 325 324 325 324 323 322 322 322 322 322 323 322 322 322 323 322 323 323 322
319 320 320 321 322 324 321 321 320 319 319 319 319 320 321 322 323 323 324 322 324 327 328 326 324 324 321 319 321 323 322 323 325 325 324 323 321 321 321 321 323 323 323 322 323 323 323 323 324
319 321 323 323 324 323 318 322 323 318 317 316 318 319 321 322 321 322 323 323 324 326 328 327 325 325 325 322 319 320 320 320 323 323 323 323 322 321 319 320 321 322 323 322 322 322 323 323 324
320 321 322 324 321 318 315 321 319 316 317 318 319 319 320 319 320 319 319 320 323 325 326 326 326 326 325 325 320 318 318 319 321 323 323 323 323 322 321 320 320 320 321 322 322 322 322 323 324
316 321 318 321 307 316 316 314 313 312 313 313 315 318 317 317 318 320 322 321 322 319 319 321 320 322 324 325 325 319 317 317 319 320 323 324 325 325 325 324 323 322 320 320 322 322 322 322 323
317 315 321 319 322 321 316 315 318 315 315 314 312 313 313 312 312 316 317 316 318 320 317 318 319 320 323 324 324 323 322 321 319 319 322 323 324 325 325 325 325 324 321 320 321 322 322 323 322
319 320 320 318 319 322 315 315 309 314 313 312 309 311 311 311 310 312 311 312 315 318 317 316 318 318 319 320 321 322 322 321 319 318 320 322 324 324 325 326 326 324 322 320 321 323 323 323 323
316 317 318 321 318 316 312 318 311 307 308 308 309 313 317 315 309 310 310 312 312 315 318 318 315 318 318 318 319 320 321 320 320 320 320 323 324 324 325 326 326 325 324 322 323 324 325 326 326

GFSSGP_850_thetae_171.txt.gz
Theta_e
332 326 322 326 330 330 330 329 328 329 330 328 328 329 329 327 329 335 334 335 334 333 332 327 332 334 332 328 326 324 317 312 313 318 322 325 322 330 330 330 332 325 320 317 315 315 315 315 315
332 325 325 328 333 331 329 327 328 329 330 329 328 329 330 333 334 334 334 331 334 333 333 331 332 334 331 329 327 323 317 312 313 319 322 323 322 330 329 329 330 325 319 319 315 315 315 316 316
331 325 327 331 332 331 330 329 328 330 329 330 329 330 330 332 334 334 334 330 334 331 334 334 333 334 330 331 328 322 315 313 314 319 319 323 323 325 329 326 329 328 320 318 315 315 316 316 316
331 330 327 331 332 328 327 328 328 330 329 329 331 330 331 333 335 333 328 330 334 331 333 329 332 333 330 331 329 321 316 321 322 324 316 319 320 322 329 327 329 328 322 318 314 315 315 316 316
330 330 332 332 330 328 327 328 329 330 329 329 330 329 329 334 328 327 325 328 332 330 333 327 333 333 330 330 329 321 317 326 325 322 315 313 314 316 329 328 328 329 326 315 314 314 315 315 316
332 331 335 334 330 326 327 328 329 329 328 329 330 328 330 325 324 325 327 329 331 329 333 329 333 334 330 329 329 324 319 329 329 324 315 313 313 314 328 329 328 326 326 315 315 314 314 315 315
332 335 335 335 332 328 325 326 329 329 329 329 330 329 332 333 332 328 325 331 329 327 330 333 333 334 332 329 328 326 319 328 329 326 314 314 313 313 319 328 324 318 318 316 315 315 314 314 315
330 332 335 334 334 333 325 325 324 327 329 328 329 329 329 333 325 329 325 330 327 323 324 332 338 332 332 330 328 326 321 317 322 315 314 314 313 313 313 316 321 316 316 316 316 316 315 314 314
328 333 335 335 334 333 326 324 324 323 325 327 330 330 331 329 323 327 330 328 322 315 319 330 332 336 335 332 327 326 320 316 314 315 314 314 314 313 313 314 315 315 315 316 316 316 315 315 314
331 334 333 332 332 331 328 327 327 325 325 326 327 329 326 327 327 323 329 329 324 316 313 325 330 331 336 337 330 324 320 316 315 312 314 315 325 321 317 314 314 314 314 315 316 316 316 316 315
328 332 331 331 330 329 329 329 329 328 330 328 328 327 331 327 329 331 330 329 328 322 323 318 327 330 330 333 328 325 325 319 315 319 319 323 324 318 314 313 313 313 314 314 315 315 315 316 319
328 327 326 329 329 327 328 329 330 328 329 329 330 327 327 330 331 332 332 331 330 327 323 318 323 328 324 323 323 324 325 322 321 318 323 323 321 316 314 314 313 313 313 315 315 315 316 315 315
328 323 324 326 327 327 327 328 328 328 328 327 327 328 326 324 328 329 331 332 331 328 324 318 320 325 321 320 325 323 322 319 318 316 313 314 316 316 315 317 315 314 314 314 314 314 314 315 315
325 324 324 324 325 325 325 325 326 325 326 325 327 327 325 326 326 327 329 331 328 329 328 324 320 320 320 317 319 315 319 316 317 317 313 313 313 314 315 315 315 314 314 314 314 314 315 315 315
325 326 324 325 325 325 325 325 324 323 325 324 325 325 325 324 327 327 327 331 330 325 328 327 324 319 319 317 319 318 315 314 313 314 313 312 313 313 314 314 314 314 314 314 314 314 315 315 315
326 325 326 322 323 325 326 322 322 322 324 324 325 325 326 326 325 325 326 328 331 330 326 328 326 325 320 317 317 318 317 315 314 314 314 313 313 313 314 314 314 314 314 314 314 314 314 315 316
325 326 327 325 323 324 327 325 322 323 324 324 324 325 325 326 326 324 325 326 328 331 327 327 327 326 325 321 318 317 318 316 315 315 315 315 314 314 314 314 315 315 315 314 314 314 315 316 316
324 326 324 324 323 324 325 325 324 324 325 326 325 325 325 324 324 325 324 324 326 329 330 326 326 326 327 325 322 319 316 316 316 316 316 316 315 315 315 315 315 316 316 316 315 315 315 316 320
321 322 323 322 322 322 323 323 323 322 323 323 324 325 325 325 324 324 325 323 323 327 329 327 324 324 327 327 325 322 321 318 316 316 316 316 316 316 315 315 315 316 317 316 316 316 317 318 319
323 323 323 321 320 321 321 322 321 321 322 322 323 323 324 324 324 323 323 325 323 325 324 324 327 323 325 327 326 324 322 321 321 318 316 316 316 317 316 316 316 316 316 317 318 318 318 319 320
320 321 321 322 320 320 320 322 321 320 320 320 321 321 322 322 323 322 322 323 324 323 326 323 320 320 324 325 326 326 326 325 325 323 321 317 316 316 316 316 316 316 316 317 317 318 319 319 320
321 319 319 319 320 321 318 321 319 319 319 319 319 320 320 322 322 322 323 323 323 323 324 326 325 322 320 323 327 326 324 322 319 319 320 321 319 317 317 317 317 317 317 317 317 318 319 320 321
320 318 318 319 321 320 319 321 319 320 320 320 320 319 319 320 321 321 322 323 324 324 323 323 326 326 323 321 322 324 326 325 324 323 321 321 320 321 320 318 318 317 317 317 317 318 319 320 320
318 319 319 320 321 323 320 320 320 319 321 322 321 321 321 320 321 322 322 323 324 324 324 323 324 326 327 325 322 323 322 323 326 325 324 322 322 321 321 321 320 320 319 319 319 319 319 320 321
318 319 322 323 322 324 319 322 321 321 321 321 321 321 321 321 321 320 320 319 320 322 322 322 323 325 327 328 326 323 322 321 321 322 324 325 324 323 322 321 321 321 321 322 321 321 322 321 321
319 319 321 320 324 321 320 323 323 321 320 320 321 320 320 320 316 313 312 311 311 312 318 321 320 322 326 328 328 326 324 323 321 321 321 322 324 323 323 323 322 322 322 322 323 323 323 323 323
318 320 318 319 319 321 322 321 320 320 320 320 319 319 317 316 315 312 313 315 316 314 310 316 318 318 320 325 328 328 327 325 324 324 323 324 322 323 324 323 323 323 324 324 324 324 323 324 324
317 317 320 319 320 321 317 319 320 320 320 319 320 318 315 314 315 315 314 313 316 316 315 311 312 312 316 318 323 328 323 325 325 325 325 325 325 324 326 326 323 322 323 324 325 324 323 325 324
316 318 318 319 320 320 319 318 317 317 318 318 318 316 314 313 315 316 315 315 315 316 317 317 312 314 313 315 317 323 319 321 324 325 325 325 325 326 327 326 325 323 322 324 325 324 324 323 323
316 316 317 319 316 318 318 318 316 317 318 317 316 315 315 316 317 316 315 315 316 315 316 317 315 309 314 314 314 315 315 316 321 323 324 325 326 327 327 326 325 324 323 324 325 325 326 325 324

GFSSGP_850_thetae_174.txt.gz
Theta_e
331 330 324 325 330 331 330 329 328 329 328 328 327 327 328 331 332 338 335 335 333 328 326 328 332 332 328 327 325 322 313 312 313 316 320 328 330 330 331 331 324 315 319 315 315 315 315 315 315
331 330 326 327 332 333 329 327 329 329 329 329 327 329 329 333 335 333 335 335 332 333 325 327 332 334 328 327 324 320 313 312 314 319 321 326 330 329 330 329 322 322 326 316 315 315 315 315 316
330 330 326 330 332 329 329 328 328 329 329 330 330 329 331 334 334 334 336 334 334 334 329 328 332 334 329 330 323 318 314 313 314 318 320 322 327 329 325 329 327 323 326 317 314 315 315 316 316
331 331 328 330 333 327 327 327 329 329 329 330 330 330 333 333 334 334 330 334 333 333 336 329 332 332 329 330 323 317 315 317 323 315 318 316 320 329 325 329 328 325 319 315 314 315 315 316 316
332 332 333 333 330 327 327 328 330 329 329 329 329 328 334 332 332 331 329 334 330 330 332 332 332 331 329 330 325 320 320 326 322 318 313 313 314 328 326 329 328 326 318 314 314 314 315 315 316
332 332 335 336 330 326 328 329 329 329 328 329 329 328 334 327 327 330 331 333 331 329 325 327 333 332 330 328 326 320 319 324 322 316 313 313 313 322 328 328 328 327 315 314 314 314 314 315 316
332 334 337 335 334 328 325 327 329 329 329 330 329 329 333 331 328 326 326 332 330 330 329 324 330 333 330 328 328 324 320 327 327 320 314 313 313 315 328 328 323 326 322 315 314 314 314 314 315
331 332 334 334 334 333 325 327 326 326 329 329 329 329 331 333 325 326 327 330 329 325 330 327 332 331 332 329 327 325 320 322 324 315 314 313 313 312 317 321 321 317 321 316 315 315 314 314 315
330 332 333 333 334 333 325 324 324 324 324 328 330 331 332 328 324 324 325 327 325 326 323 328 331 331 331 331 328 325 322 318 317 313 312 313 313 313 312 315 318 316 316 316 316 315 315 314 314
331 332 332 330 331 332 327 327 327 325 325 325 326 329 329 328 327 324 322 322 321 319 317 331 330 335 333 335 331 325 320 317 314 312 311 313 314 314 313 313 314 314 315 316 316 316 315 315 315
328 331 329 330 331 331 330 328 328 329 328 328 327 328 328 325 329 328 325 322 318 317 314 316 330 326 329 335 335 324 322 317 314 311 311 313 321 321 315 314 313 313 314 315 315 316 315 316 318
326 325 325 326 327 327 327 328 329 329 329 329 329 329 329 327 328 330 330 328 327 322 318 314 317 322 321 324 330 321 320 317 314 311 311 314 319 316 317 314 313 313 313 314 314 315 315 315 316
323 325 325 323 325 327 327 327 328 328 329 328 328 328 328 329 327 329 331 332 331 328 324 320 316 319 318 317 317 322 321 319 316 314 313 314 316 314 314 313 313 313 313 313 314 314 315 314 314
324 325 325 321 323 325 326 325 326 327 326 326 326 326 326 327 326 325 328 331 332 331 328 324 321 316 318 316 316 318 321 317 318 317 313 313 314 313 313 314 314 314 313 313 313 314 314 314 314
324 326 325 324 324 324 324 324 324 324 324 323 324 325 325 326 326 326 327 326 329 332 331 328 325 321 318 317 316 317 320 318 315 314 313 312 312 313 313 313 314 314 314 314 314 314 314 315 315
324 324 325 320 321 324 324 322 320 321 322 322 322 324 325 325 326 326 325 327 327 330 332 330 328 326 322 319 316 316 316 316 315 315 314 313 312 312 313 313 313 313 314 314 314 314 314 314 314
326 325 324 323 321 322 325 326 323 322 322 323 323 324 324 324 325 326 325 324 326 327 331 332 330 328 326 322 319 317 316 315 315 315 314 314 313 312 312 312 313 313 314 313 314 314 314 314 314
324 324 322 322 322 322 323 324 323 324 323 323 323 325 325 325 325 325 325 326 325 326 328 331 332 330 328 327 323 320 318 317 316 315 315 314 314 314 313 313 313 314 314 314 314 314 314 314 314
321 321 321 321 320 322 322 321 321 321 321 322 322 323 324 324 324 325 325 324 325 324 325 328 330 331 330 329 327 324 321 319 317 316 315 315 315 315 314 314 314 314 314 315 315 315 314 314 315
322 322 321 320 320 320 319 319 318 319 319 320 321 322 322 323 323 323 324 324 324 325 324 324 327 328 331 330 328 326 325 322 320 318 316 316 315 315 315 315 315 314 315 315 316 316 316 315 316
322 322 322 320 318 318 318 318 317 317 318 319 319 320 320 321 322 322 323 323 324 323 325 324 324 326 324 326 329 328 327 326 324 321 320 318 316 316 316 316 316 315 315 315 315 316 316 317 317
320 317 318 319 320 319 317 318 317 316 316 316 318 318 319 320 321 321 321 322 322 322 323 325 324 324 326 324 327 328 327 327 324 322 321 320 320 317 316 316 316 316 316 316 316 316 316 318 318
318 317 319 319 318 317 317 319 316 316 316 316 317 319 319 319 319 320 321 321 322 323 323 323 324 324 325 327 326 326 327 326 326 326 323 321 320 321 319 317 316 316 316 316 316 316 316 317 318
318 319 319 319 319 320 318 317 316 315 316 320 319 320 320 321 320 321 322 321 321 322 322 324 324 323 324 327 327 327 326 325 327 327 326 324 322 320 320 320 320 318 317 317 317 317 317 317 317
319 319 316 320 318 318 316 317 316 316 317 318 317 320 320 320 320 320 318 315 314 314 315 322 324 324 324 326 327 327 328 326 325 327 326 326 325 324 322 321 320 320 320 320 318 318 318 318 318
318 318 318 318 320 318 315 319 318 318 318 320 320 320 319 317 314 313 315 314 315 316 315 311 317 320 323 325 327 328 328 328 327 327 327 326 325 324 324 324 323 322 321 321 321 320 319 319 319
317 318 316 318 314 319 319 319 317 317 318 318 319 319 318 316 315 314 315 315 315 316 316 316 313 314 320 322 326 328 329 329 328 328 328 327 326 325 324 324 324 324 324 323 323 322 321 321 321
315 316 318 318 318 315 313 312 315 318 318 318 317 318 315 314 314 316 316 315 315 315 315 316 316 314 310 313 318 323 328 329 329 329 329 328 327 327 326 325 324 324 325 325 325 324 323 323 323
315 318 317 316 315 316 315 314 314 313 316 315 314 315 314 314 316 317 316 316 315 315 316 315 315 316 313 309 312 315 318 323 328 329 329 329 328 327 327 327 327 326 327 326 326 326 325 325 325
314 315 316 316 316 315 316 317 313 312 314 315 315 316 316 317 317 317 316 316 316 316 315 315 314 315 315 313 308 312 313 316 320 323 325 327 328 325 327 328 329 328 328 327 327 326 325 325 325